BEIDOU-3 M20

Last updated on Jan. 15, 2021, 6:37 a.m. UTC

1 44865U 19090B   21014.53268299 -.00000021  00000-0  00000-0 0  9992
2 44865  55.1566 129.0806 0013388 277.2206  43.2301  1.86231553  7343
UTC
Height (km)
Latitude
Longitude
Inclination
Orbital Period
UTC large
Height (km)
Speed (km/s)
/
Latitude / Longitude
Inclination (degrees)
Orbital Period (minutes)
Azimuth
Elevation
Range (km)
Doppler Factor
iOS Compass Heading
iOS Angle

Next 30 passes for location: Hong Kong

Rise time Rise Azimuth (degrees) Set time Set Azimuth (degrees) Duration Max altitude (degrees)

No matching passes for this satellites